Weather in Slobodskiye Dubrovki

Russia / Republic of Mordovia     54°23′55″N   43°32′30″E
temp.,
°C
wind,
m/s
gust,
m/s
humid.,
%
clouds,
%
prec.,
mm/h
press.,
hPa
HPBL,
m
27 september, mon
mon2700:00+9nne5109186 0.4 1008412
03:00+9nne61292100 0.6 1010575
06:00+8n61287100 0.2 1012572
09:00+8n61185100 0.2 1013476
12:00+11n71077100 0.0 1014911
15:00+9n6986100 0.1 10151001
18:00+7ne6890100 1.0 10171113
21:00+5ne6994100 1.8 1019870
28 september, tue
tue2800:00+5ne6996100 0.1 1021795
03:00+5ne6994100 0.3 1023721
06:00+4ne6981100 0.0 1025939
09:00+5ne598093 0.0 1027954
12:00+8ene68565 0.0 10281119
15:00+9ne67465 0.0 10281350
18:00+6nne486024 0.0 1030188
21:00+4nne37711 0.0 1032155
29 september, wed
wed2900:00+3nne34765 0.0 103284
03:00+2nne347993 0.0 103386
06:00+1nne358181 0.0 1033106
09:00+5nne356571 0.0 1034368
12:00+9ne344828 0.0 10331176
15:00+10nne344370 0.0 10321451
18:00+7nne335876 0.0 103337
21:00+5nne336613 0.0 103440
30 september, thu
thu3000:00+4nne227141 0.0 103413
03:00+3n22755 0.0 103517
06:00+2n22795 0.0 103514
09:00+6nne22645 0.0 1036250
12:00+10n11528 0.0 1035762
15:00+11nnw224931 0.0 10341241
18:00+9wnw2261100 0.0 103419
21:00+7wnw336856 0.0 103452
1 october, fri
fri100:00+6wnw337649 0.0 103538
03:00+7w3674100 0.0 1035174
06:00+7wnw3781100 0.0 1035220
09:00+9nw468199 0.0 1035271
12:00+12nw4671100 0.0 1034576
15:00+13nw4668100 0.0 1034726
18:00+12nw3676100 0.0 1034183
21:00+11nw3581100 0.0 1034165